Year,Month,Day,Hour,Minute,Value (Times are PST for temperature in C)
2021,04,23,00,00,12.20
2021,04,23,00,01,12.20
2021,04,23,00,02,12.20
2021,04,23,00,03,12.20
2021,04,23,00,04,12.20
2021,04,23,00,05,12.20
2021,04,23,00,06,12.20
2021,04,23,00,07,12.20
2021,04,23,00,08,12.10
2021,04,23,00,09,12.10
2021,04,23,00,10,12.00
2021,04,23,00,11,12.00
2021,04,23,00,12,11.90
2021,04,23,00,13,11.90
2021,04,23,00,14,11.90
2021,04,23,00,15,11.80
2021,04,23,00,16,11.80
2021,04,23,00,17,11.80
2021,04,23,00,18,11.80
2021,04,23,00,19,11.80
2021,04,23,00,20,11.80
2021,04,23,00,21,11.80
2021,04,23,00,22,11.80
2021,04,23,00,23,11.80
2021,04,23,00,24,11.80
2021,04,23,00,25,11.70
2021,04,23,00,26,11.70
2021,04,23,00,27,11.70
2021,04,23,00,28,11.70
2021,04,23,00,29,11.60
2021,04,23,00,30,11.60
2021,04,23,00,31,11.60
2021,04,23,00,32,11.60
2021,04,23,00,33,11.50
2021,04,23,00,34,11.50
2021,04,23,00,35,11.40
2021,04,23,00,36,11.40
2021,04,23,00,37,11.40
2021,04,23,00,38,11.40
2021,04,23,00,39,11.30
2021,04,23,00,40,11.30
2021,04,23,00,41,11.20
2021,04,23,00,42,11.20
2021,04,23,00,43,11.20
2021,04,23,00,44,11.20
2021,04,23,00,45,11.20
2021,04,23,00,46,11.20
2021,04,23,00,47,11.10
2021,04,23,00,48,11.20
2021,04,23,00,49,11.10
2021,04,23,00,50,11.10
2021,04,23,00,51,11.10
2021,04,23,00,52,11.10
2021,04,23,00,53,11.10
2021,04,23,00,54,11.10
2021,04,23,00,55,11.10
2021,04,23,00,56,11.10
2021,04,23,00,57,11.10
2021,04,23,00,58,11.10
2021,04,23,00,59,11.10
2021,04,23,01,00,11.00
2021,04,23,01,01,11.00
2021,04,23,01,02,11.00
2021,04,23,01,03,11.00
2021,04,23,01,04,11.00
2021,04,23,01,05,11.00
2021,04,23,01,06,11.00
2021,04,23,01,07,10.90
2021,04,23,01,08,10.90
2021,04,23,01,09,10.90
2021,04,23,01,10,11.00
2021,04,23,01,11,11.00
2021,04,23,01,12,10.90
2021,04,23,01,13,10.90
2021,04,23,01,14,10.90
2021,04,23,01,15,10.90
2021,04,23,01,16,10.90
2021,04,23,01,17,10.90
2021,04,23,01,18,10.90
2021,04,23,01,19,10.90
2021,04,23,01,20,10.90
2021,04,23,01,21,10.90
2021,04,23,01,22,10.90
2021,04,23,01,23,10.90
2021,04,23,01,24,10.90
2021,04,23,01,25,10.90
2021,04,23,01,26,10.90
2021,04,23,01,27,10.90
2021,04,23,01,28,10.90
2021,04,23,01,29,10.90
2021,04,23,01,30,10.90
2021,04,23,01,31,10.90
2021,04,23,01,32,10.90
2021,04,23,01,33,10.90
2021,04,23,01,34,10.90
2021,04,23,01,35,10.90
2021,04,23,01,36,10.90
2021,04,23,01,37,10.80
2021,04,23,01,38,10.80
2021,04,23,01,39,10.90
2021,04,23,01,40,10.90
2021,04,23,01,41,10.90
2021,04,23,01,42,10.90
2021,04,23,01,43,10.80
2021,04,23,01,44,10.80
2021,04,23,01,45,10.90
2021,04,23,01,46,10.80
2021,04,23,01,47,10.80
2021,04,23,01,48,10.80
2021,04,23,01,49,10.70
2021,04,23,01,50,10.70
2021,04,23,01,51,10.70
2021,04,23,01,52,10.60
2021,04,23,01,53,10.60
2021,04,23,01,54,10.50
2021,04,23,01,55,10.40
2021,04,23,01,56,10.30
2021,04,23,01,57,10.20
2021,04,23,01,58,10.20
2021,04,23,01,59,10.20
2021,04,23,02,00,10.20
2021,04,23,02,01,10.10
2021,04,23,02,02,10.10
2021,04,23,02,03,10.10
2021,04,23,02,04,10.10
2021,04,23,02,05,10.20
2021,04,23,02,06,10.20
2021,04,23,02,07,10.20
2021,04,23,02,08,10.10
2021,04,23,02,09,10.10
2021,04,23,02,10,10.10
2021,04,23,02,11,10.10
2021,04,23,02,12,10.10
2021,04,23,02,13,10.20
2021,04,23,02,14,10.20
2021,04,23,02,15,10.20
2021,04,23,02,16,10.20
2021,04,23,02,17,10.10
2021,04,23,02,18,10.10
2021,04,23,02,19,10.10
2021,04,23,02,20,10.00
2021,04,23,02,21,10.00
2021,04,23,02,22,10.00
2021,04,23,02,23,9.90
2021,04,23,02,24,9.90
2021,04,23,02,25,9.80
2021,04,23,02,26,9.80
2021,04,23,02,27,9.70
2021,04,23,02,28,9.70
2021,04,23,02,29,9.70
2021,04,23,02,30,9.60
2021,04,23,02,31,9.50
2021,04,23,02,32,9.50
2021,04,23,02,33,9.40
2021,04,23,02,34,9.40
2021,04,23,02,35,9.30
2021,04,23,02,36,9.30
2021,04,23,02,37,9.30
2021,04,23,02,38,9.30
2021,04,23,02,39,9.20
2021,04,23,02,40,9.20
2021,04,23,02,41,9.20
2021,04,23,02,42,9.10
2021,04,23,02,43,9.10
2021,04,23,02,44,9.00
2021,04,23,02,45,9.00
2021,04,23,02,46,8.90
2021,04,23,02,47,8.90
2021,04,23,02,48,8.90
2021,04,23,02,49,8.90
2021,04,23,02,50,8.80
2021,04,23,02,51,8.80
2021,04,23,02,52,8.80
2021,04,23,02,53,8.80
2021,04,23,02,54,8.80
2021,04,23,02,55,8.80
2021,04,23,02,56,8.70
2021,04,23,02,57,8.70
2021,04,23,02,58,8.70
2021,04,23,02,59,8.70
2021,04,23,03,00,8.70
2021,04,23,03,01,8.80
2021,04,23,03,02,8.80
2021,04,23,03,03,8.70
2021,04,23,03,04,8.70
2021,04,23,03,05,8.60
2021,04,23,03,06,8.60
2021,04,23,03,07,8.60
2021,04,23,03,08,8.60
2021,04,23,03,09,8.60
2021,04,23,03,10,8.60
2021,04,23,03,11,8.60
2021,04,23,03,12,8.70
2021,04,23,03,13,8.80
2021,04,23,03,14,8.90
2021,04,23,03,15,9.00
2021,04,23,03,16,9.20
2021,04,23,03,17,9.30
2021,04,23,03,18,9.40
2021,04,23,03,19,9.40
2021,04,23,03,20,9.50
2021,04,23,03,21,9.50
2021,04,23,03,22,9.50
2021,04,23,03,23,9.50
2021,04,23,03,24,9.50
2021,04,23,03,25,9.50
2021,04,23,03,26,9.40
2021,04,23,03,27,9.40
2021,04,23,03,28,9.40
2021,04,23,03,29,9.40
2021,04,23,03,30,9.40
2021,04,23,03,31,9.30
2021,04,23,03,32,9.30
2021,04,23,03,33,9.30
2021,04,23,03,34,9.30
2021,04,23,03,35,9.30
2021,04,23,03,36,9.30
2021,04,23,03,37,9.20
2021,04,23,03,38,9.20
2021,04,23,03,39,9.20
2021,04,23,03,40,9.10
2021,04,23,03,41,9.10
2021,04,23,03,42,9.00
2021,04,23,03,43,9.00
2021,04,23,03,44,9.00
2021,04,23,03,45,8.90
2021,04,23,03,46,8.90
2021,04,23,03,47,8.90
2021,04,23,03,48,8.80
2021,04,23,03,49,8.80
2021,04,23,03,50,8.80
2021,04,23,03,51,8.80
2021,04,23,03,52,8.80
2021,04,23,03,53,8.80
2021,04,23,03,54,8.80
2021,04,23,03,55,8.80
2021,04,23,03,56,8.80
2021,04,23,03,57,8.80
2021,04,23,03,58,8.80
2021,04,23,03,59,8.80
2021,04,23,04,00,8.80
2021,04,23,04,01,8.80
2021,04,23,04,02,8.70
2021,04,23,04,03,8.70
2021,04,23,04,04,8.70
2021,04,23,04,05,8.70
2021,04,23,04,06,8.70
2021,04,23,04,07,8.60
2021,04,23,04,08,8.60
2021,04,23,04,09,8.60
2021,04,23,04,10,8.50
2021,04,23,04,11,8.40
2021,04,23,04,12,8.40
2021,04,23,04,13,8.30
2021,04,23,04,14,8.30
2021,04,23,04,15,8.30
2021,04,23,04,16,8.20
2021,04,23,04,17,8.20
2021,04,23,04,18,8.20
2021,04,23,04,19,8.10
2021,04,23,04,20,8.10
2021,04,23,04,21,8.10
2021,04,23,04,22,8.00
2021,04,23,04,23,8.00
2021,04,23,04,24,8.00
2021,04,23,04,25,8.00
2021,04,23,04,26,7.90
2021,04,23,04,27,7.90
2021,04,23,04,28,7.90
2021,04,23,04,29,7.90
2021,04,23,04,30,7.90
2021,04,23,04,31,7.80
2021,04,23,04,32,7.80
2021,04,23,04,33,7.80
2021,04,23,04,34,7.80
2021,04,23,04,35,7.80
2021,04,23,04,36,7.80
2021,04,23,04,37,7.80
2021,04,23,04,38,7.80
2021,04,23,04,39,7.80
2021,04,23,04,40,7.80
2021,04,23,04,41,7.70
2021,04,23,04,42,7.70
2021,04,23,04,43,7.70
2021,04,23,04,44,7.70
2021,04,23,04,45,7.70
2021,04,23,04,46,7.60
2021,04,23,04,47,7.60
2021,04,23,04,48,7.60
2021,04,23,04,49,7.60
2021,04,23,04,50,7.50
2021,04,23,04,51,7.50
2021,04,23,04,52,7.50
2021,04,23,04,53,7.50
2021,04,23,04,54,7.40
2021,04,23,04,55,7.40
2021,04,23,04,56,7.40
2021,04,23,04,57,7.40
2021,04,23,04,58,7.30
2021,04,23,04,59,7.30
2021,04,23,05,00,7.20
2021,04,23,05,01,7.20
2021,04,23,05,02,7.20
2021,04,23,05,03,7.10
2021,04,23,05,04,7.10
2021,04,23,05,05,7.10
2021,04,23,05,06,7.00
2021,04,23,05,07,7.00
2021,04,23,05,08,6.90
2021,04,23,05,09,6.90
2021,04,23,05,10,6.90
2021,04,23,05,11,6.90
2021,04,23,05,12,6.90
2021,04,23,05,13,6.90
2021,04,23,05,14,6.90
2021,04,23,05,15,6.90
2021,04,23,05,16,6.90
2021,04,23,05,17,6.90
2021,04,23,05,18,6.80
2021,04,23,05,19,6.90
2021,04,23,05,20,6.90
2021,04,23,05,21,6.90
2021,04,23,05,22,6.90
2021,04,23,05,23,6.90
2021,04,23,05,24,6.90
2021,04,23,05,25,6.90
2021,04,23,05,26,6.90
2021,04,23,05,27,6.90
2021,04,23,05,28,6.90
2021,04,23,05,29,6.90
2021,04,23,05,30,6.90
2021,04,23,05,31,6.90
2021,04,23,05,32,7.00
2021,04,23,05,33,7.00
2021,04,23,05,34,6.90
2021,04,23,05,35,7.00
2021,04,23,05,36,6.90
2021,04,23,05,37,6.90
2021,04,23,05,38,6.90
2021,04,23,05,39,6.90
2021,04,23,05,40,6.90
2021,04,23,05,41,6.90
2021,04,23,05,42,6.90
2021,04,23,05,43,6.90
2021,04,23,05,44,6.90
2021,04,23,05,45,6.80
2021,04,23,05,46,6.80
2021,04,23,05,47,6.80
2021,04,23,05,48,6.80
2021,04,23,05,49,6.70
2021,04,23,05,50,6.70
2021,04,23,05,51,6.60
2021,04,23,05,52,6.60
2021,04,23,05,53,6.50
2021,04,23,05,54,6.50
2021,04,23,05,55,6.50
2021,04,23,05,56,6.40
2021,04,23,05,57,6.40
2021,04,23,05,58,6.30
2021,04,23,05,59,6.30
2021,04,23,06,00,6.30
2021,04,23,06,01,6.30
2021,04,23,06,02,6.30
2021,04,23,06,03,6.20
2021,04,23,06,04,6.20
2021,04,23,06,05,6.20
2021,04,23,06,06,6.20
2021,04,23,06,07,6.20
2021,04,23,06,08,6.10
2021,04,23,06,09,6.10
2021,04,23,06,10,6.10
2021,04,23,06,11,6.10
2021,04,23,06,12,6.10
2021,04,23,06,13,6.10
2021,04,23,06,14,6.10
2021,04,23,06,15,6.10
2021,04,23,06,16,6.10
2021,04,23,06,17,6.00
2021,04,23,06,18,6.00
2021,04,23,06,19,6.00
2021,04,23,06,20,6.00
2021,04,23,06,21,6.00
2021,04,23,06,22,6.10
2021,04,23,06,23,6.10
2021,04,23,06,24,6.10
2021,04,23,06,25,6.10
2021,04,23,06,26,6.10
2021,04,23,06,27,6.10
2021,04,23,06,28,6.10
2021,04,23,06,29,6.10
2021,04,23,06,30,6.10
2021,04,23,06,31,6.10
2021,04,23,06,32,6.00
2021,04,23,06,33,6.00
2021,04,23,06,34,6.00
2021,04,23,06,35,6.00
2021,04,23,06,36,6.00
2021,04,23,06,37,6.00
2021,04,23,06,38,6.10
2021,04,23,06,39,6.00
2021,04,23,06,40,6.10
2021,04,23,06,41,6.10
2021,04,23,06,42,6.10
2021,04,23,06,43,6.10
2021,04,23,06,44,6.20
2021,04,23,06,45,6.20
2021,04,23,06,46,6.20
2021,04,23,06,47,6.20
2021,04,23,06,48,6.30
2021,04,23,06,49,6.30
2021,04,23,06,50,6.30
2021,04,23,06,51,6.30
2021,04,23,06,52,6.30
2021,04,23,06,53,6.40
2021,04,23,06,54,6.40
2021,04,23,06,55,6.40
2021,04,23,06,56,6.40
2021,04,23,06,57,6.40
2021,04,23,06,58,6.40
2021,04,23,06,59,6.40
2021,04,23,07,00,6.40
2021,04,23,07,01,6.40
2021,04,23,07,02,6.50
2021,04,23,07,03,6.40
2021,04,23,07,04,6.50
2021,04,23,07,05,6.40
2021,04,23,07,06,6.40
2021,04,23,07,07,6.40
2021,04,23,07,08,6.50
2021,04,23,07,09,6.50
2021,04,23,07,10,6.50
2021,04,23,07,11,6.50
2021,04,23,07,12,6.50
2021,04,23,07,13,6.50
2021,04,23,07,14,6.60
2021,04,23,07,15,6.60
2021,04,23,07,16,6.60
2021,04,23,07,17,6.60
2021,04,23,07,18,6.70
2021,04,23,07,19,6.70
2021,04,23,07,20,6.70
2021,04,23,07,21,6.70
2021,04,23,07,22,6.70
2021,04,23,07,23,6.80
2021,04,23,07,24,6.80
2021,04,23,07,25,6.80
2021,04,23,07,26,6.80
2021,04,23,07,27,6.90
2021,04,23,07,28,6.90
2021,04,23,07,29,6.90
2021,04,23,07,30,7.00
2021,04,23,07,31,7.10
2021,04,23,07,32,7.10
2021,04,23,07,33,7.20
2021,04,23,07,34,7.20
2021,04,23,07,35,7.20
2021,04,23,07,36,7.30
2021,04,23,07,37,7.30
2021,04,23,07,38,7.30
2021,04,23,07,39,7.40
2021,04,23,07,40,7.40
2021,04,23,07,41,7.50
2021,04,23,07,42,7.50
2021,04,23,07,43,7.60
2021,04,23,07,44,7.60
2021,04,23,07,45,7.70
2021,04,23,07,46,7.70
2021,04,23,07,47,7.70
2021,04,23,07,48,7.90
2021,04,23,07,49,8.00
2021,04,23,07,50,8.10
2021,04,23,07,51,8.20
2021,04,23,07,52,8.30
2021,04,23,07,53,8.40
2021,04,23,07,54,8.40
2021,04,23,07,55,8.50
2021,04,23,07,56,8.60
2021,04,23,07,57,8.60
2021,04,23,07,58,8.70
2021,04,23,07,59,8.70
2021,04,23,08,00,8.80
2021,04,23,08,01,8.80
2021,04,23,08,02,8.90
2021,04,23,08,03,8.90
2021,04,23,08,04,8.90
2021,04,23,08,05,9.00
2021,04,23,08,06,9.00
2021,04,23,08,07,9.10
2021,04,23,08,08,9.10
2021,04,23,08,09,9.20
2021,04,23,08,10,9.20
2021,04,23,08,11,9.30
2021,04,23,08,12,9.30
2021,04,23,08,13,9.30
2021,04,23,08,14,9.30
2021,04,23,08,15,9.40
2021,04,23,08,16,9.40
2021,04,23,08,17,9.50
2021,04,23,08,18,9.50
2021,04,23,08,19,9.60
2021,04,23,08,20,9.60
2021,04,23,08,21,9.70
2021,04,23,08,22,9.80
2021,04,23,08,23,9.80
2021,04,23,08,24,9.80
2021,04,23,08,25,9.80
2021,04,23,08,26,9.80
2021,04,23,08,27,9.80
2021,04,23,08,28,9.80
2021,04,23,08,29,9.90
2021,04,23,08,30,9.90
2021,04,23,08,31,9.90
2021,04,23,08,32,9.90
2021,04,23,08,33,9.90
2021,04,23,08,34,9.90
2021,04,23,08,35,9.90
2021,04,23,08,36,9.80
2021,04,23,08,37,9.80
2021,04,23,08,38,9.80
2021,04,23,08,39,9.80
2021,04,23,08,40,9.80
2021,04,23,08,41,9.80
2021,04,23,08,42,9.80
2021,04,23,08,43,9.80
2021,04,23,08,44,9.70
2021,04,23,08,45,9.70
2021,04,23,08,46,9.60
2021,04,23,08,47,9.60
2021,04,23,08,48,9.60
2021,04,23,08,49,9.70
2021,04,23,08,50,9.70
2021,04,23,08,51,9.70
2021,04,23,08,52,9.70
2021,04,23,08,53,9.70
2021,04,23,08,54,9.70
2021,04,23,08,55,9.80
2021,04,23,08,56,9.80
2021,04,23,08,57,9.80
2021,04,23,08,58,9.80
2021,04,23,08,59,9.80
2021,04,23,09,00,9.80
2021,04,23,09,01,9.80
2021,04,23,09,02,9.80
2021,04,23,09,03,9.90
2021,04,23,09,04,9.90
2021,04,23,09,05,9.90
2021,04,23,09,06,9.90
2021,04,23,09,07,10.00
2021,04,23,09,08,10.00
2021,04,23,09,09,10.10
2021,04,23,09,10,10.10
2021,04,23,09,11,10.10
2021,04,23,09,12,10.10
2021,04,23,09,13,10.10
2021,04,23,09,14,10.20
2021,04,23,09,15,10.20
2021,04,23,09,16,10.20
2021,04,23,09,17,10.20
2021,04,23,09,18,10.20
2021,04,23,09,19,10.30
2021,04,23,09,20,10.30
2021,04,23,09,21,10.40
2021,04,23,09,22,10.40
2021,04,23,09,23,10.40
2021,04,23,09,24,10.40
2021,04,23,09,25,10.40
2021,04,23,09,26,10.40
2021,04,23,09,27,10.30
2021,04,23,09,28,10.30
2021,04,23,09,29,10.30
2021,04,23,09,30,10.30
2021,04,23,09,31,10.30
2021,04,23,09,32,10.30
2021,04,23,09,33,10.30
2021,04,23,09,34,10.30
2021,04,23,09,35,10.30
2021,04,23,09,36,10.30
2021,04,23,09,37,10.30
2021,04,23,09,38,10.30
2021,04,23,09,39,10.40
2021,04,23,09,40,10.40
2021,04,23,09,41,10.40
2021,04,23,09,42,10.40
2021,04,23,09,43,10.40
2021,04,23,09,44,10.50
2021,04,23,09,45,10.60
2021,04,23,09,46,10.70
2021,04,23,09,47,10.80
2021,04,23,09,48,10.80
2021,04,23,09,49,10.90
2021,04,23,09,50,11.00
2021,04,23,09,51,11.10
2021,04,23,09,52,11.20
2021,04,23,09,53,11.30
2021,04,23,09,54,11.40
2021,04,23,09,55,11.40
2021,04,23,09,56,11.40
2021,04,23,09,57,11.40
2021,04,23,09,58,11.40
2021,04,23,09,59,11.40
2021,04,23,10,00,11.50
2021,04,23,10,01,11.50
2021,04,23,10,02,11.60
2021,04,23,10,03,11.70
2021,04,23,10,04,11.80
2021,04,23,10,05,11.90
2021,04,23,10,06,11.90
2021,04,23,10,07,12.00
2021,04,23,10,08,12.00
2021,04,23,10,09,12.00
2021,04,23,10,10,12.00
2021,04,23,10,11,11.90
2021,04,23,10,12,11.90
2021,04,23,10,13,11.90
2021,04,23,10,14,11.90
2021,04,23,10,15,11.80
2021,04,23,10,16,11.80
2021,04,23,10,17,11.80
2021,04,23,10,18,11.70
2021,04,23,10,19,11.60
2021,04,23,10,20,11.70
2021,04,23,10,21,11.70
2021,04,23,10,22,11.60
2021,04,23,10,23,11.50
2021,04,23,10,24,11.50
2021,04,23,10,25,11.50
2021,04,23,10,26,11.50
2021,04,23,10,27,11.60
2021,04,23,10,28,11.60
2021,04,23,10,29,11.60
2021,04,23,10,30,11.60
2021,04,23,10,31,11.70
2021,04,23,10,32,11.70
2021,04,23,10,33,11.70
2021,04,23,10,34,11.70
2021,04,23,10,35,11.70
2021,04,23,10,36,11.60
2021,04,23,10,37,11.60
2021,04,23,10,38,11.60
2021,04,23,10,39,11.60
2021,04,23,10,40,11.60
2021,04,23,10,41,11.60
2021,04,23,10,42,11.60
2021,04,23,10,43,11.50
2021,04,23,10,44,11.50
2021,04,23,10,45,11.40
2021,04,23,10,46,11.30
2021,04,23,10,47,11.20
2021,04,23,10,48,11.30
2021,04,23,10,49,11.40
2021,04,23,10,50,11.40
2021,04,23,10,51,11.50
2021,04,23,10,52,11.50
2021,04,23,10,53,11.60
2021,04,23,10,54,11.50
2021,04,23,10,55,11.60
2021,04,23,10,56,11.60
2021,04,23,10,57,11.60
2021,04,23,10,58,11.60
2021,04,23,10,59,11.60
2021,04,23,11,00,11.60
2021,04,23,11,01,11.60
2021,04,23,11,02,11.70
2021,04,23,11,03,11.70
2021,04,23,11,04,11.70
2021,04,23,11,05,11.80
2021,04,23,11,06,11.90
2021,04,23,11,07,11.90
2021,04,23,11,08,11.90
2021,04,23,11,09,11.90
2021,04,23,11,10,11.90
2021,04,23,11,11,11.80
2021,04,23,11,12,11.80
2021,04,23,11,13,11.80
2021,04,23,11,14,11.80
2021,04,23,11,15,11.90
2021,04,23,11,16,11.80
2021,04,23,11,17,11.80
2021,04,23,11,18,11.80
2021,04,23,11,19,11.70
2021,04,23,11,20,11.70
2021,04,23,11,21,11.80
2021,04,23,11,22,11.90
2021,04,23,11,23,11.90
2021,04,23,11,24,11.90
2021,04,23,11,25,11.90
2021,04,23,11,26,11.90
2021,04,23,11,27,11.90
2021,04,23,11,28,12.00
2021,04,23,11,29,12.00
2021,04,23,11,30,11.90
2021,04,23,11,31,11.90
2021,04,23,11,32,11.90
2021,04,23,11,33,11.90
2021,04,23,11,34,11.80
2021,04,23,11,35,11.80
2021,04,23,11,36,11.80
2021,04,23,11,37,11.70
2021,04,23,11,38,11.70
2021,04,23,11,39,11.60
2021,04,23,11,40,11.60
2021,04,23,11,41,11.70
2021,04,23,11,42,11.70
2021,04,23,11,43,11.70
2021,04,23,11,44,11.60
2021,04,23,11,45,11.60
2021,04,23,11,46,11.50
2021,04,23,11,47,11.50
2021,04,23,11,48,11.50
2021,04,23,11,49,11.50
2021,04,23,11,50,11.50
2021,04,23,11,51,11.60
2021,04,23,11,52,11.70
2021,04,23,11,53,11.70
2021,04,23,11,54,11.80
2021,04,23,11,55,11.90
2021,04,23,11,56,12.00
2021,04,23,11,57,12.10
2021,04,23,11,58,12.10
2021,04,23,11,59,12.00
2021,04,23,12,00,11.90
2021,04,23,12,01,11.90
2021,04,23,12,02,11.90
2021,04,23,12,03,11.90
2021,04,23,12,04,11.90
2021,04,23,12,05,11.90
2021,04,23,12,06,11.90
2021,04,23,12,07,11.90
2021,04,23,12,08,11.90
2021,04,23,12,09,11.90
2021,04,23,12,10,11.80
2021,04,23,12,11,11.80
2021,04,23,12,12,11.80
2021,04,23,12,13,11.80
2021,04,23,12,14,11.80
2021,04,23,12,15,11.80
2021,04,23,12,16,11.70
2021,04,23,12,17,11.80
2021,04,23,12,18,11.80
2021,04,23,12,19,11.90
2021,04,23,12,20,11.90
2021,04,23,12,21,11.90
2021,04,23,12,22,11.80
2021,04,23,12,23,11.70
2021,04,23,12,24,11.70
2021,04,23,12,25,11.70
2021,04,23,12,26,11.60
2021,04,23,12,27,11.70
2021,04,23,12,28,11.70
2021,04,23,12,29,11.70
2021,04,23,12,30,11.70
2021,04,23,12,31,11.80
2021,04,23,12,32,11.90
2021,04,23,12,33,12.00
2021,04,23,12,34,12.00
2021,04,23,12,35,12.00
2021,04,23,12,36,12.00
2021,04,23,12,37,12.00
2021,04,23,12,38,12.00
2021,04,23,12,39,12.00
2021,04,23,12,40,12.10
2021,04,23,12,41,12.10
2021,04,23,12,42,12.00
2021,04,23,12,43,12.00
2021,04,23,12,44,12.00
2021,04,23,12,45,12.10
2021,04,23,12,46,12.10
2021,04,23,12,47,12.20
2021,04,23,12,48,12.10
2021,04,23,12,49,12.10
2021,04,23,12,50,12.10
2021,04,23,12,51,12.10
2021,04,23,12,52,12.00
2021,04,23,12,53,12.10
2021,04,23,12,54,12.00
2021,04,23,12,55,12.00
2021,04,23,12,56,11.90
2021,04,23,12,57,11.90
2021,04,23,12,58,11.80
2021,04,23,12,59,11.80
2021,04,23,13,00,11.70
2021,04,23,13,01,11.60
2021,04,23,13,02,11.60
2021,04,23,13,03,11.60
2021,04,23,13,04,11.60
2021,04,23,13,05,11.70
2021,04,23,13,06,11.80
2021,04,23,13,07,11.80
2021,04,23,13,08,11.80
2021,04,23,13,09,11.70
2021,04,23,13,10,11.60
2021,04,23,13,11,11.60
2021,04,23,13,12,11.60
2021,04,23,13,13,11.60
2021,04,23,13,14,11.50
2021,04,23,13,15,11.40
2021,04,23,13,16,11.40
2021,04,23,13,17,11.50
2021,04,23,13,18,11.40
2021,04,23,13,19,11.40
2021,04,23,13,20,11.40
2021,04,23,13,21,11.40
2021,04,23,13,22,11.30
2021,04,23,13,23,11.30
2021,04,23,13,24,11.30
2021,04,23,13,25,11.30
2021,04,23,13,26,11.40
2021,04,23,13,27,11.40
2021,04,23,13,28,11.30
2021,04,23,13,29,11.20
2021,04,23,13,30,11.20
2021,04,23,13,31,11.20
2021,04,23,13,32,11.20
2021,04,23,13,33,11.30
2021,04,23,13,34,11.30
2021,04,23,13,35,11.30
2021,04,23,13,36,11.20
2021,04,23,13,37,11.20
2021,04,23,13,38,11.10
2021,04,23,13,39,11.10
2021,04,23,13,40,11.10
2021,04,23,13,41,11.10
2021,04,23,13,42,11.10
2021,04,23,13,43,11.10
2021,04,23,13,44,11.10
2021,04,23,13,45,11.10
2021,04,23,13,46,11.20
2021,04,23,13,47,11.10
2021,04,23,13,48,11.10
2021,04,23,13,49,11.20
2021,04,23,13,50,11.20
2021,04,23,13,51,11.20
2021,04,23,13,52,11.20
2021,04,23,13,53,11.20
2021,04,23,13,54,11.20
2021,04,23,13,55,11.20
2021,04,23,13,56,11.20
2021,04,23,13,57,11.20
2021,04,23,13,58,11.20
2021,04,23,13,59,11.30
2021,04,23,14,00,11.40
2021,04,23,14,01,11.50
2021,04,23,14,02,11.60
2021,04,23,14,03,11.50
2021,04,23,14,04,11.40
2021,04,23,14,05,11.30
2021,04,23,14,06,11.30
2021,04,23,14,07,11.30
2021,04,23,14,08,11.30
2021,04,23,14,09,11.40
2021,04,23,14,10,11.40
2021,04,23,14,11,11.30
2021,04,23,14,12,11.30
2021,04,23,14,13,11.30
2021,04,23,14,14,11.30
2021,04,23,14,15,11.30
2021,04,23,14,16,11.40
2021,04,23,14,17,11.40
2021,04,23,14,18,11.40
2021,04,23,14,19,11.50
2021,04,23,14,20,11.50
2021,04,23,14,21,11.50
2021,04,23,14,22,11.60
2021,04,23,14,23,11.60
2021,04,23,14,24,11.60
2021,04,23,14,25,11.60
2021,04,23,14,26,11.60
2021,04,23,14,27,11.70
2021,04,23,14,28,11.70
2021,04,23,14,29,11.70
2021,04,23,14,30,11.70
2021,04,23,14,31,11.70
2021,04,23,14,32,11.70
2021,04,23,14,33,11.70
2021,04,23,14,34,11.70
2021,04,23,14,35,11.70
2021,04,23,14,36,11.70
2021,04,23,14,37,11.70
2021,04,23,14,38,11.70
2021,04,23,14,39,11.80
2021,04,23,14,40,11.80
2021,04,23,14,41,11.90
2021,04,23,14,42,11.90
2021,04,23,14,43,11.90
2021,04,23,14,44,11.90
2021,04,23,14,45,11.90
2021,04,23,14,46,11.90
2021,04,23,14,47,11.80
2021,04,23,14,48,11.80
2021,04,23,14,49,11.80
2021,04,23,14,50,11.80
2021,04,23,14,51,11.70
2021,04,23,14,52,11.70
2021,04,23,14,53,11.70
2021,04,23,14,54,11.80
2021,04,23,14,55,11.80
2021,04,23,14,56,11.80
2021,04,23,14,57,11.90
2021,04,23,14,58,11.90
2021,04,23,14,59,11.90
2021,04,23,15,00,11.80
2021,04,23,15,01,11.80
2021,04,23,15,02,11.70
2021,04,23,15,03,11.70
2021,04,23,15,04,11.70
2021,04,23,15,05,11.70
2021,04,23,15,06,11.70
2021,04,23,15,07,11.70
2021,04,23,15,08,11.70
2021,04,23,15,09,11.60
2021,04,23,15,10,11.60
2021,04,23,15,11,11.60
2021,04,23,15,12,11.50
2021,04,23,15,13,11.50
2021,04,23,15,14,11.50
2021,04,23,15,15,11.60
2021,04,23,15,16,11.60
2021,04,23,15,17,11.60
2021,04,23,15,18,11.70
2021,04,23,15,19,11.70
2021,04,23,15,20,11.70
2021,04,23,15,21,11.70
2021,04,23,15,22,11.80
2021,04,23,15,23,11.80
2021,04,23,15,24,11.80
2021,04,23,15,25,11.80
2021,04,23,15,26,11.90
2021,04,23,15,27,11.90
2021,04,23,15,28,12.00
2021,04,23,15,29,12.10
2021,04,23,15,30,12.20
2021,04,23,15,31,12.20
2021,04,23,15,32,12.20
2021,04,23,15,33,12.20
2021,04,23,15,34,12.20
2021,04,23,15,35,12.20
2021,04,23,15,36,12.20
2021,04,23,15,37,12.30
2021,04,23,15,38,12.30
2021,04,23,15,39,12.30
2021,04,23,15,40,12.30
2021,04,23,15,41,12.30
2021,04,23,15,42,12.30
2021,04,23,15,43,12.30
2021,04,23,15,44,12.20
2021,04,23,15,45,12.10
2021,04,23,15,46,12.00
2021,04,23,15,47,11.90
2021,04,23,15,48,11.80
2021,04,23,15,49,11.80
2021,04,23,15,50,11.70
2021,04,23,15,51,11.80
2021,04,23,15,52,11.80
2021,04,23,15,53,11.80
2021,04,23,15,54,11.90
2021,04,23,15,55,11.90
2021,04,23,15,56,11.80
2021,04,23,15,57,11.70
2021,04,23,15,58,11.70
2021,04,23,15,59,11.70
2021,04,23,16,00,11.70
2021,04,23,16,01,11.70
2021,04,23,16,02,11.70
2021,04,23,16,03,11.70
2021,04,23,16,04,11.70
2021,04,23,16,05,11.70
2021,04,23,16,06,11.80
2021,04,23,16,07,11.80
2021,04,23,16,08,11.80
2021,04,23,16,09,11.80
2021,04,23,16,10,11.90
2021,04,23,16,11,11.80
2021,04,23,16,12,11.80
2021,04,23,16,13,11.80
2021,04,23,16,14,11.70
2021,04,23,16,15,11.70
2021,04,23,16,16,11.70
2021,04,23,16,17,11.70
2021,04,23,16,18,11.60
2021,04,23,16,19,11.60
2021,04,23,16,20,11.60
2021,04,23,16,21,11.50
2021,04,23,16,22,11.50
2021,04,23,16,23,11.50
2021,04,23,16,24,11.50
2021,04,23,16,25,11.50
2021,04,23,16,26,11.50
2021,04,23,16,27,11.60
2021,04,23,16,28,11.50
2021,04,23,16,29,11.50
2021,04,23,16,30,11.60
2021,04,23,16,31,11.50
2021,04,23,16,32,11.50
2021,04,23,16,33,11.60
2021,04,23,16,34,11.60
2021,04,23,16,35,11.60
2021,04,23,16,36,11.60
2021,04,23,16,37,11.60
2021,04,23,16,38,11.60
2021,04,23,16,39,11.70
2021,04,23,16,40,11.60
2021,04,23,16,41,11.50
2021,04,23,16,42,11.40
2021,04,23,16,43,11.40
2021,04,23,16,44,11.40
2021,04,23,16,45,11.30
2021,04,23,16,46,11.20
2021,04,23,16,47,11.20
2021,04,23,16,48,11.30
2021,04,23,16,49,11.30
2021,04,23,16,50,11.40
2021,04,23,16,51,11.50
2021,04,23,16,52,11.50
2021,04,23,16,53,11.60
2021,04,23,16,54,11.60
2021,04,23,16,55,11.60
2021,04,23,16,56,11.60
2021,04,23,16,57,11.50
2021,04,23,16,58,11.50
2021,04,23,16,59,11.40
2021,04,23,17,00,11.40
2021,04,23,17,01,11.40
2021,04,23,17,02,11.30
2021,04,23,17,03,11.30
2021,04,23,17,04,11.30
2021,04,23,17,05,11.40
2021,04,23,17,06,11.40
2021,04,23,17,07,11.40
2021,04,23,17,08,11.40
2021,04,23,17,09,11.40
2021,04,23,17,10,11.50
2021,04,23,17,11,11.60
2021,04,23,17,12,11.60
2021,04,23,17,13,11.50
2021,04,23,17,14,11.50
2021,04,23,17,15,11.50
2021,04,23,17,16,11.50
2021,04,23,17,17,11.50
2021,04,23,17,18,11.50
2021,04,23,17,19,11.50
2021,04,23,17,20,11.40
2021,04,23,17,21,11.40
2021,04,23,17,22,11.50
2021,04,23,17,23,11.50
2021,04,23,17,24,11.50
2021,04,23,17,25,11.50
2021,04,23,17,26,11.50
2021,04,23,17,27,11.50
2021,04,23,17,28,11.40
2021,04,23,17,29,11.40
2021,04,23,17,30,11.40
2021,04,23,17,31,11.40
2021,04,23,17,32,11.40
2021,04,23,17,33,11.40
2021,04,23,17,34,11.40
2021,04,23,17,35,11.40
2021,04,23,17,36,11.40
2021,04,23,17,37,11.40